Погода в Стара-Загоре

Болгария     42°25′33″N   25°38′04″E
темп.,
°C
ветер,
м/с
пор.,
м/с
влажн.,
%
обл.,
%
осадки,
мм/ч
давл.,
гПа
погр.,
м
13 апреля, вт
вт1300:00+8ссз11815 0.0 102010
03:00+7с11855 0.0 102010
06:00+6всв11877 0.0 101910
09:00+9вюв1180100 0.0 1019196
12:00+12ююв2272100 0.0 1018625
15:00+15ююв336898 0.0 1016900
18:00+13в2381100 0.6 1013248
21:00+10в1293100 3.4 1013101
14 апреля, ср
ср1400:00+9с0198100 3.0 1013100
03:00+9с009690 5.8 101315
06:00+9в119596 0.0 101211
09:00+10св1189100 0.4 1013227
12:00+9ссз348992 4.4 1013391
15:00+10с4574100 4.9 1013681
18:00+8с3573100 0.8 1014633
21:00+7ссз237373 0.8 1016152
15 апреля, чт
чт1500:00+4ссз22806 0.0 101740
03:00+2сз227889 0.0 101716
06:00+2ссз217275 0.0 101812
09:00+6ссз126269 0.0 1018362
12:00+10ю225555 0.0 10181301
15:00+12ююв335754 0.0 10161339
18:00+9с356494 0.1 1017586
21:00+7с476169 0.1 1018495
16 апреля, пт
пт1600:00+6сз236299 0.0 1019113
03:00+6сз116075 0.0 101937
06:00+2сз22711 0.0 101914
09:00+6зсз22590 0.0 1020365
12:00+10юз23459 0.0 10191557
15:00+13ю234114 0.0 10171914
18:00+12ююв225294 0.0 10171127
21:00+6с3264100 0.0 101924
17 апреля, сб
сб1700:00+5с22669 0.0 102018
03:00+5с116098 0.0 101915
06:00+5с1159100 0.0 101911
09:00+7всв1261100 0.0 1019186
12:00+10вюв336187 0.0 1019832
15:00+12вюв3462100 0.1 10171255
18:00+10вюв4681100 0.3 1017449
21:00+6св128793 0.4 1019138